| time (UTC) | temp F | wind direction | speed MPH | gust MPH | rain 1hr in | rain 24hr in | rain mn in | humidity % | barometer mb |
| 20260509120401 | 40 | 79 | 0.0 | 0.0 | 0.00 | 0.00 | 0.00 | 84 | 1017.4 |
| 20260509110406 | 43 | 79 | 0.0 | 0.0 | 0.00 | 0.00 | 0.00 | 77 | 1018.3 |
| 20260509100337 | 49 | 338 | 1.0 | 0.0 | 0.00 | 0.00 | 0.00 | 64 | 1018.8 |
| 20260509090404 | 50 | 321 | 1.0 | 0.0 | 0.00 | 0.00 | 0.00 | 61 | 1018.0 |
| 20260509080336 | 50 | 298 | 1.0 | 0.0 | 0.00 | 0.00 | 0.00 | 59 | 1017.9 |
| 20260509070342 | 50 | 257 | 1.0 | 0.0 | 0.00 | 0.00 | 0.00 | 54 | 1018.1 |
| 20260509060333 | 50 | 283 | 1.0 | 0.0 | 0.00 | 0.00 | 0.00 | 48 | 1017.4 |
| 20260509050410 | 51 | 305 | 2.0 | 0.0 | 0.00 | 0.00 | 0.00 | 43 | 1017.6 |
| 20260509040336 | 52 | 327 | 2.0 | 0.0 | 0.00 | 0.00 | 0.00 | 40 | 1017.1 |
| 20260509030331 | 53 | 261 | 2.0 | 0.0 | 0.00 | 0.00 | 0.00 | 35 | 1016.1 |
| 20260509020404 | 54 | 358 | 0.0 | 0.0 | 0.00 | 0.00 | 0.00 | 32 | 1016.0 |
| 20260509010346 | 58 | 346 | 3.0 | 0.0 | 0.00 | 0.00 | 0.00 | 32 | 1014.9 |
| 20260509000337 | 60 | 269 | 3.0 | 0.0 | 0.00 | 0.00 | 0.00 | 34 | 1014.6 |
| 20260508220340 | 62 | 268 | 3.0 | 0.0 | 0.00 | 0.00 | 0.00 | 28 | 1014.3 |
| 20260508210348 | 60 | 311 | 3.0 | 0.0 | 0.00 | 0.00 | 0.00 | 36 | 1014.2 |
| 20260508200335 | 60 | 242 | 2.0 | 0.0 | 0.00 | 0.00 | 0.00 | 32 | 1013.8 |
| 20260508190338 | 60 | 252 | 2.0 | 0.0 | 0.00 | 0.00 | 0.00 | 32 | 1013.0 |
| 20260508180405 | 60 | 2 | 1.0 | 0.0 | 0.00 | 0.00 | 0.00 | 36 | 1013.4 |
| 20260508170340 | 57 | 346 | 0.0 | 0.0 | 0.00 | 0.00 | 0.00 | 36 | 1013.2 |
| 20260508160351 | 55 | 250 | 0.0 | 0.0 | 0.00 | 0.00 | 0.00 | 61 | 1013.7 |
| 20260508150351 | 46 | 250 | 0.0 | 0.0 | 0.00 | 0.00 | 0.00 | 83 | 1013.1 |
| 20260508140400 | 41 | 250 | 0.0 | 0.0 | 0.00 | 0.00 | 0.00 | 94 | 1012.8 |
| 20260508130338 | 39 | 250 | 0.0 | 0.0 | 0.00 | 0.00 | 0.00 | 97 | 1012.3 |